Regional Weather Roundup
Issued by NWS State College, PA

Home | Current Version | Previous Version | Graphics & Text | Print | Product List | Glossary On
Versions: 1 2 3 4 5 6 7 8 9 10 11 12 13 14 15 16 17 18 19 20 21 22 23 24 25 26 27 28 29 30 31 32 33 34 35 36 37 38 39 40 41 42 43 44 45 46 47 48 49 50
000
ASUS41 KCTP 271010
RWRCTP

REGIONAL WEATHER ROUNDUP
NATIONAL WEATHER SERVICE STATE COLLEGE PA
600 AM EDT SAT MAY 27 2017

Note: "fair" indicates few or no clouds below 12,000 feet with no
significant weather and/or obstructions to visibility.

* = STATION THAT DOES NOT REPORT PRECIPITATION /E.G. RAIN...SNOW...ETC/
    THUNDER OR FOG.

PAZ002>004-007>009-013>016-020>023-029>032-271100-
WESTERN PENNSYLVANIA

CITY           SKY/WX    TMP DP  RH WIND       PRES   REMARKS
ERIE           MOCLDY    52  49  89 S5        29.90R
MEADVILLE      CLOUDY    53  52  96 CALM      29.90S
FRANKLIN*      CLOUDY    52  48  87 CALM      29.91R
NEW CASTLE     LGT RAIN  55  54  96 CALM      29.90F
BEAVER COUNTY  NOT AVBL
BUTLER*        CLOUDY    54  52  94 SW3       29.91R
PITTSBURGH INT LGT RAIN  57  57 100 E9        29.86F
PITTSBURGH     NOT AVBL
INDIANA*       PTCLDY    52  52 100 CALM      29.93R
LATROBE        LGT RAIN  54  54 100 CALM      29.92R
WASHINGTON CO* CLOUDY    55  54  94 CALM      29.92R
$$

PAZ004>006-010>012-017>019-024>028-033>037-041-042-045-046-049>053-271100-
CENTRAL PENNSYLVANIA

CITY           SKY/WX    TMP DP  RH WIND       PRES   REMARKS
BRADFORD       CLOUDY    51  51 100 CALM      29.91R
DUBOIS         FOG       48  46  93 E3        29.90S VSB<1/4
CLEARFIELD     FOG       49  49 100 CALM      29.91F VSB<1/4
JOHNSTOWN      CLOUDY    53  50  89 W5        29.91R
ALTOONA        CLOUDY    55  52  89 CALM      29.91S
STATE COLLEGE  CLEAR     50  48  93 CALM      29.90F
WILLIAMSPORT   CLEAR     51  49  92 CALM      29.90R
SELINSGROVE    CLEAR     49  48  97 CALM      29.91S
FT INDIANTOWN  CLEAR     51  51 100 W3        29.90S
CAPITAL CITY   CLEAR     54  49  83 W3        29.89F
HARRISBURG     PTCLDY    54  51  90 NE3       29.89F
YORK           CLEAR     52  52 100 CALM      29.90F
$$

PAZ038>040-043-044-047-048-054-055-060>062-067>071-271100-
EASTERN PENNSYLVANIA

CITY           SKY/WX    TMP DP  RH WIND       PRES   REMARKS
SCRANTON       CLOUDY    57  53  86 SW3       29.89R
MOUNT POCONO   CLOUDY    53  52  96 NW7       29.89S
ALLENTOWN      CLEAR     52  49  89 SW6       29.89R
QUAKERTOWN*    SUNNY     50  50 100 CALM      29.90S
READING        CLEAR     52  52 100 CALM      29.90R
LANCASTER      CLEAR     55  53  93 NW5       29.90F
COATESVILLE    SUNNY     54  50  87 W6        29.92S
POTTSTOWN      PTCLDY    54  50  86 CALM      29.92R
BLUE BELL      CLEAR     50  50 100 CALM      29.92R
DOYLESTOWN     CLEAR     56  52  86 W3        29.88R
WILLOW GROVE   NOT AVBL
NORTH PHILA    CLEAR     59  52  77 W9        29.90R
PHILADELPHIA   PTCLDY    61  51  70 W12       29.91R
$$




USA.gov is the U.S. government's official web portal to all federal, state and local government web resources and services.